Change the Weather History Date:

Friday, January 29, 1999

  Actual Average Record
Temperature  
Mean Temperature 30 °F 28 °F  
Max Temperature 48 °F 42 °F 69 °F (1920)
Min Temperature 12 °F 14 °F -16 °F (1949)
Degree Days  
Heating Degree Days 35 37  
Month to date heating degree days 1096  
Since 1 July heating degree days 3868  
Cooling Degree Days 0 0  
Month to date cooling degree days 0  
Year to date cooling degree days 0  
Moisture  
Dew Point 12 °F    
Average Humidity 55    
Maximum Humidity 81    
Minimum Humidity 24    
Precipitation  
Precipitation 0.00 in 0.01 in 0.20 in (1905)
Month to date precipitation 0.38  
Year to date precipitation 0.38  
Snow  
Snow 0.00 in 0.20 in 2.50 in (2001)
Month to date snowfall 5.0  
Since 1 July snowfall 21.0  
Snow Depth -    
Sea Level Pressure  
Sea Level Pressure 30.32 in    
Wind  
Wind Speed 5 mph (NNW)    
Max Wind Speed 7 mph    
Max Gust Speed -    
Visibility 10 miles    
Events      
T = Trace of Precipitation, MM = Missing Value Source: NWS Daily Summary

Daily Weather History Graph

Daily Weather History Graph

Search for Another Location

Airport or City:

Trip Planner

Search our weather history database for the weather conditions in past years. The results will help you decide how hot, cold, wet, or windy it might be!

Date:

Astronomy

Jan. 29, 1999 Rise Set
Actual Time 7:10 AM MST 5:05 PM MST
Civil Twilight 6:40 AM MST 5:35 PM MST
Nautical Twilight 6:06 AM MST 6:08 PM MST
Astronomical Twilight 5:34 AM MST 6:41 PM MST
Moon 3:20 PM MST (1/29) 5:23 AM MST (1/29)
Length of Visible Light 10h 54m
Length of Day
9h 55m
Waxing Gibbous, 96% of the Moon is Illuminated
Jan 29
Waxing Gibbous
Jan 31
Full
Feb 8
Last Quarter
Feb 15
New
Feb 22
First Quarter

Hourly Weather History & Observations

Time (MST) Temp. Windchill Dew Point Humidity Pressure Visibility Wind Dir Wind Speed Gust Speed Precip Events Conditions
12:54 AM 17.1 °F 7.6 °F 9.0 °F 71% 30.28 in 10.0 mi North 6.9 mph - N/A   Clear
1:54 AM 18.0 °F 8.7 °F 9.0 °F 68% 30.28 in 10.0 mi NNW 6.9 mph - N/A   Clear
2:54 AM 19.9 °F 13.4 °F 9.0 °F 62% 30.27 in 10.0 mi NW 4.6 mph - N/A   Clear
3:54 AM 12.9 °F - 8.1 °F 81% 30.30 in 10.0 mi Calm Calm - N/A   Clear
4:54 AM 12.9 °F 6.9 °F 7.0 °F 77% 30.31 in 10.0 mi North 3.5 mph - N/A   Clear
5:54 AM 14.0 °F 6.5 °F 7.0 °F 74% 30.32 in 10.0 mi West 4.6 mph - N/A   Clear
6:54 AM 12.0 °F 1.5 °F 7.0 °F 80% 30.36 in 10.0 mi North 6.9 mph - N/A   Clear
7:54 AM 15.1 °F 7.7 °F 10.0 °F 80% 30.39 in 10.0 mi NNW 4.6 mph - N/A   Clear
8:54 AM 25.0 °F 19.3 °F 15.1 °F 66% 30.38 in 10.0 mi NNW 4.6 mph - N/A   Clear
9:54 AM 30.0 °F 25.2 °F 16.0 °F 56% 30.37 in 10.0 mi WNW 4.6 mph - N/A   Clear
10:54 AM 37.9 °F 33.5 °F 16.0 °F 41% 30.36 in 10.0 mi South 5.8 mph - N/A   Clear
11:54 AM 42.1 °F - 15.1 °F 34% 30.32 in 10.0 mi Calm Calm - N/A   Clear
12:54 PM 46.0 °F 42.5 °F 14.0 °F 28% 30.27 in 10.0 mi NW 6.9 mph - N/A   Clear
1:54 PM 48.0 °F - 12.9 °F 24% 30.24 in 10.0 mi Variable 4.6 mph - N/A   Clear
2:54 PM 48.9 °F - 14.0 °F 25% 30.22 in 10.0 mi ESE 6.9 mph - N/A   Clear
3:54 PM 48.9 °F - 14.0 °F 25% 30.25 in 10.0 mi East 6.9 mph - N/A   Clear
4:54 PM 39.0 °F 34.8 °F 12.9 °F 34% 30.29 in 10.0 mi NE 5.8 mph - N/A   Clear
5:54 PM 35.1 °F 31.0 °F 12.9 °F 40% 30.32 in 10.0 mi WNW 4.6 mph - N/A   Clear
6:54 PM 30.0 °F 23.2 °F 12.9 °F 49% 30.35 in 10.0 mi NNW 6.9 mph - N/A   Clear
7:54 PM 25.0 °F - 12.9 °F 60% 30.38 in 10.0 mi Calm Calm - N/A   Clear
8:54 PM 21.0 °F 16.2 °F 9.0 °F 60% 30.37 in 10.0 mi SE 3.5 mph - N/A   Clear
9:54 PM 21.9 °F - 7.0 °F 53% 30.35 in 10.0 mi Calm Calm - N/A   Clear
10:54 PM 21.0 °F 13.4 °F 12.9 °F 71% 30.32 in 10.0 mi NNE 5.8 mph - N/A   Clear
11:54 PM 21.9 °F 17.2 °F 12.9 °F 68% 30.32 in 10.0 mi ESE 3.5 mph - N/A   Clear